{"data":{"norad_id":56957,"epoch":"2026-05-25T02:11:41.152128Z","epoch_age_seconds":63228,"freshness":"FRESH","line1":"1 56957U 23084AB  26145.09144852  .00004635  00000+0  16971-3 0  9994","line2":"2 56957  98.1386 330.2361 0008498 114.6284 245.5840 15.28582828162288","mean_motion":15.28582828,"eccentricity":0.0008498,"inclination_deg":98.1386,"raan_deg":330.2361,"arg_perigee_deg":114.6284,"mean_anomaly_deg":245.584,"bstar":0.00016971,"rev_number":16228,"period_min":94.204904936954,"perigee_km":474.21982449832,"apogee_km":485.87599557142,"semimajor_km":6858.1849100349,"source":"CELESTRAK","updated_at":"2026-05-25T13:37:59.787365Z"}}